Glasgow, KY

1:21 PM CDT on March 23, 2017 (GMT -0500)
Glasgow Municipal

Weather History for KGLW - January, 2014

Change the Weather History Date:

Wednesday, January 29, 2014

  Actual Average Record
Temperature  
Mean Temperature 12 °F -  
Max Temperature 25 °F 45 °F 72 °F (1975)
Min Temperature 0 °F 26 °F -5 °F (1977)
Degree Days  
Heating Degree Days 52    
Moisture  
Dew Point 0 °F    
Average Humidity 61    
Maximum Humidity 86    
Minimum Humidity 32    
Precipitation  
Precipitation 0.00 in - - ()
Sea Level Pressure  
Sea Level Pressure 30.37 in    
Wind  
Wind Speed 1 mph (SSW)    
Max Wind Speed 6 mph    
Max Gust Speed -    
Visibility 10 miles    
Events      
Averages and records for this station are not official NWS values.
T = Trace of Precipitation, MM = Missing Value Source: NWS Daily Summary

Daily Weather History Graph

Daily Weather History Graph

Search for Another Location

Airport or City:

Trip Planner

Search our weather history database for the weather conditions in past years. The results will help you decide how hot, cold, wet, or windy it might be!

Date:

Astronomy

Jan. 29, 2014 Rise Set
Actual Time 6:48 AM CST 5:05 PM CST
Civil Twilight 6:21 AM CST 5:33 PM CST
Nautical Twilight 5:49 AM CST 6:04 PM CST
Astronomical Twilight 5:19 AM CST 6:35 PM CST
Moon 5:24 AM CST (1/29) 4:04 PM CST (1/29)
Length of Visible Light 11h 11m
Length of Day
10h 16m
Waning Crescent, 2% of the Moon is Illuminated
Jan 29
Waning Crescent
Jan 30
New
Feb 6
First Quarter
Feb 14
Full
Feb 22
Last Quarter

Hourly Weather History & Observations

Time (CST) Temp. Windchill Dew Point Humidity Pressure Visibility Wind Dir Wind Speed Gust Speed Precip Events Conditions
12:15 AM 3.9 °F - -1.8 °F 77% 30.38 in 10.0 mi Calm Calm - N/A   Clear
12:35 AM 3.6 °F - -2.2 °F 77% 30.37 in 10.0 mi Calm Calm - N/A   Clear
12:55 AM 3.0 °F - -2.9 °F 76% 30.37 in 10.0 mi Calm Calm - N/A   Clear
1:15 AM 3.0 °F - -3.3 °F 75% 30.38 in 10.0 mi Calm Calm - N/A   Clear
1:35 AM 3.6 °F - -3.5 °F 73% 30.37 in 10.0 mi Calm Calm - N/A   Clear
1:55 AM 2.8 °F - -2.6 °F 78% 30.37 in 10.0 mi Calm Calm - N/A   Clear
2:15 AM 2.3 °F - -2.4 °F 81% 30.38 in 10.0 mi Calm Calm - N/A   Clear
2:35 AM 2.3 °F - -2.2 °F 81% 30.38 in 10.0 mi Calm Calm - N/A   Clear
2:55 AM 2.5 °F - -2.2 °F 81% 30.38 in 10.0 mi Calm Calm - N/A   Clear
3:15 AM 1.9 °F - -2.6 °F 81% 30.38 in 10.0 mi Calm Calm - N/A   Clear
3:35 AM 1.8 °F - -2.6 °F 82% 30.38 in 10.0 mi Calm Calm - N/A   Clear
3:55 AM 1.9 °F - -2.0 °F 83% 30.38 in 10.0 mi Calm Calm - N/A   Clear
4:15 AM 2.3 °F - -1.8 °F 83% 30.38 in 10.0 mi Calm Calm - N/A   Clear
4:35 AM 1.4 °F - -2.6 °F 83% 30.38 in 10.0 mi Calm Calm - N/A   Clear
4:55 AM 1.2 °F - -2.4 °F 85% 30.38 in 10.0 mi Calm Calm - N/A   Clear
5:15 AM 1.0 °F - -2.4 °F 86% 30.38 in 10.0 mi Calm Calm - N/A   Clear
5:35 AM 1.0 °F - -2.6 °F 85% 30.38 in 10.0 mi Calm Calm - N/A   Clear
5:55 AM 0.5 °F - -3.1 °F 85% 30.37 in 10.0 mi Calm Calm - N/A   Clear
6:15 AM 1.2 °F - -2.0 °F 86% 30.38 in 10.0 mi Calm Calm - N/A   Clear
6:35 AM 1.0 °F - -2.6 °F 85% 30.39 in 10.0 mi Calm Calm - N/A   Clear
6:55 AM -0.2 °F - -3.8 °F 85% 30.40 in 10.0 mi Calm Calm - N/A   Clear
7:15 AM 0.9 °F - -2.4 °F 86% 30.41 in 10.0 mi Calm Calm - N/A   Clear
7:35 AM 3.4 °F - -1.3 °F 81% 30.41 in 10.0 mi Calm Calm - N/A   Clear
7:55 AM 5.0 °F - -0.8 °F 77% 30.42 in 10.0 mi Calm Calm - N/A   Clear
8:15 AM 7.2 °F - 0.5 °F 74% 30.42 in 10.0 mi Calm Calm - N/A   Clear
8:35 AM 10.0 °F - 2.1 °F 70% 30.42 in 10.0 mi Calm Calm - N/A   Clear
8:55 AM 11.3 °F 5.1 °F 2.1 °F 67% 30.42 in 10.0 mi SSE 3.5 mph - N/A   Clear
9:15 AM 12.2 °F - 1.0 °F 61% 30.43 in 10.0 mi Calm Calm - N/A   Clear
9:35 AM 13.8 °F - 0.3 °F 55% 30.43 in 10.0 mi Calm Calm - N/A   Clear
9:55 AM 15.4 °F - 0.7 °F 52% 30.44 in 10.0 mi Calm Calm - N/A   Clear
10:15 AM 16.5 °F - 0.1 °F 49% 30.43 in 10.0 mi Calm Calm - N/A   Clear
10:35 AM 17.4 °F - -0.2 °F 46% 30.42 in 10.0 mi Calm Calm - N/A   Clear
10:55 AM 18.3 °F - -0.9 °F 43% 30.43 in 10.0 mi Calm Calm - N/A   Clear
11:15 AM 18.9 °F - -1.7 °F 41% 30.42 in 10.0 mi Calm Calm - N/A   Clear
11:35 AM 20.3 °F 13.8 °F -0.9 °F 39% 30.41 in 10.0 mi WNW 4.6 mph - N/A   Clear
11:55 AM 20.7 °F - -0.6 °F 40% 30.40 in 10.0 mi Calm Calm - N/A   Clear
12:15 PM 21.6 °F 15.3 °F -0.6 °F 38% 30.39 in 10.0 mi South 4.6 mph - N/A   Clear
12:35 PM 21.9 °F 17.2 °F -0.4 °F 38% 30.38 in 10.0 mi NNE 3.5 mph - N/A   Clear
12:55 PM 22.8 °F - 0.3 °F 38% 30.37 in 10.0 mi Calm Calm - N/A   Clear
1:15 PM 23.4 °F - -0.0 °F 36% 30.37 in 10.0 mi Calm Calm - N/A   Clear
1:35 PM 23.5 °F 19.1 °F -0.2 °F 36% 30.36 in 10.0 mi SSW 3.5 mph - N/A   Clear
1:55 PM 24.1 °F 18.2 °F 0.1 °F 35% 30.36 in 10.0 mi South 4.6 mph - N/A   Clear
2:15 PM 25.2 °F 18.3 °F 0.3 °F 34% 30.36 in 10.0 mi SW 5.8 mph - N/A   Clear
2:35 PM 25.0 °F 18.1 °F -0.2 °F 34% 30.36 in 10.0 mi SSW 5.8 mph - N/A   Clear
2:55 PM 25.0 °F 20.7 °F -0.4 °F 33% 30.36 in 10.0 mi SW 3.5 mph - N/A   Clear
3:15 PM 25.5 °F 19.9 °F -0.6 °F 32% 30.36 in 10.0 mi SSW 4.6 mph - N/A   Clear
3:35 PM 25.2 °F 19.5 °F -0.4 °F 33% 30.36 in 10.0 mi WSW 4.6 mph - N/A   Clear
3:55 PM 25.0 °F 19.3 °F -0.0 °F 34% 30.36 in 10.0 mi WSW 4.6 mph - N/A   Clear
4:15 PM 24.4 °F 18.6 °F -0.2 °F 34% 30.36 in 10.0 mi SW 4.6 mph - N/A   Clear
4:35 PM 23.9 °F 18.0 °F -0.2 °F 35% 30.36 in 10.0 mi SSW 4.6 mph - N/A   Clear
4:55 PM 23.0 °F - -0.6 °F 36% 30.35 in 10.0 mi Calm Calm - N/A   Clear
5:15 PM 21.7 °F - -0.2 °F 38% 30.36 in 10.0 mi Calm Calm - N/A   Clear
5:35 PM 20.1 °F - 0.9 °F 43% 30.36 in 10.0 mi Calm Calm - N/A   Clear
5:55 PM 20.1 °F - 0.7 °F 43% 30.36 in 10.0 mi Calm Calm - N/A   Clear
6:15 PM 18.5 °F - 1.8 °F 48% 30.35 in 10.0 mi Calm Calm - N/A   Clear
6:35 PM 17.2 °F - 2.8 °F 53% 30.36 in 10.0 mi Calm Calm - N/A   Clear
6:55 PM 16.7 °F - 3.6 °F 56% 30.35 in 10.0 mi Calm Calm - N/A   Clear
7:15 PM 16.5 °F - 3.4 °F 56% 30.35 in 10.0 mi Calm Calm - N/A   Clear
7:35 PM 14.9 °F - 4.1 °F 62% 30.35 in 10.0 mi Calm Calm - N/A   Clear
7:55 PM 14.2 °F - 5.0 °F 67% 30.34 in 10.0 mi Calm Calm - N/A   Clear
8:15 PM 13.5 °F - 4.8 °F 68% 30.34 in 10.0 mi Calm Calm - N/A   Clear
8:35 PM 13.1 °F - 4.6 °F 69% 30.34 in 10.0 mi Calm Calm - N/A   Clear
8:55 PM 11.8 °F - 4.8 °F 73% 30.33 in 10.0 mi Calm Calm - N/A   Clear
9:15 PM 12.2 °F - 5.4 °F 74% 30.33 in 10.0 mi Calm Calm - N/A   Clear
9:35 PM 11.7 °F - 4.5 °F 73% 30.33 in 10.0 mi Calm Calm - N/A   Clear
9:55 PM 10.9 °F - 4.6 °F 76% 30.33 in 10.0 mi Calm Calm - N/A   Clear
10:15 PM 12.4 °F - 4.3 °F 70% 30.32 in 10.0 mi Calm Calm - N/A   Clear
10:35 PM 14.5 °F 8.8 °F 2.7 °F 59% 30.32 in 10.0 mi SE 3.5 mph - N/A   Clear
10:55 PM 14.4 °F - 1.8 °F 57% 30.31 in 10.0 mi Calm Calm - N/A   Clear
11:15 PM 13.3 °F - 1.6 °F 60% 30.31 in 10.0 mi Calm Calm - N/A   Clear
11:35 PM 12.0 °F - 1.9 °F 64% 30.31 in 10.0 mi Calm Calm - N/A   Clear
11:55 PM 11.8 °F - 1.9 °F 65% 30.31 in 10.0 mi Calm Calm - N/A   Clear